{"data":{"norad_id":60473,"epoch":"2026-05-25T04:24:06.097824Z","epoch_age_seconds":69519,"freshness":"FRESH","line1":"1 60473U 24149F   26145.18340391  .00015410  00000+0  40187-3 0  9990","line2":"2 60473  97.3777 228.3843 0001270  51.7092 308.4267 15.38926618 98721","mean_motion":15.38926618,"eccentricity":0.000127,"inclination_deg":97.3777,"raan_deg":228.3843,"arg_perigee_deg":51.7092,"mean_anomaly_deg":308.4267,"bstar":0.00040187,"rev_number":9872,"period_min":93.571713112054,"perigee_km":448.4150844142,"apogee_km":450.14924888253,"semimajor_km":6827.4191666484,"source":"CELESTRAK","updated_at":"2026-05-25T13:38:02.088624Z"}}